Location: Drocourt
(49.0571°N, 1.7669°E)
Time: 11:56:15
(UTC+00:00)

Cosmos 2237 Rocket - Visible Passes

Search period start: 15 November 2025 00:00
Search period end: 25 November 2025 00:00
Orbit: 835 x 848 km, 71.0° (Epoch: 14 November)

Date Brightness Start Highest point End Pass type
(mag) Time Alt. Az. Time Alt. Az. Time Alt. Az.
15 Nov 2.9 03:37:33 49° E 03:37:33 49° E 03:42:20 10° NE visible
15 Nov 2.9 05:19:25 27° W 05:21:10 33° NW 05:26:14 10° NNE visible
16 Nov 3.5 03:23:30 36° ENE 03:23:30 36° ENE 03:27:08 10° NE visible
16 Nov 2.8 05:05:21 33° WNW 05:05:56 34° NW 05:11:04 10° NNE visible
17 Nov 4.0 03:09:16 27° NE 03:09:16 27° NE 03:11:55 10° NE visible
17 Nov 2.9 04:51:07 35° NW 04:51:07 35° NW 04:55:54 10° NNE visible
18 Nov 4.4 02:54:57 20° NE 02:54:57 20° NE 02:56:42 10° NE visible
18 Nov 3.1 04:36:47 33° NNW 04:36:47 33° NNW 04:40:44 10° NNE visible
18 Nov 4.1 06:19:26 10° NW 06:21:19 12° NNW 06:23:12 10° N visible
19 Nov 4.8 02:40:32 15° NE 02:40:32 15° NE 02:41:29 10° NE visible
19 Nov 3.4 04:22:22 29° N 04:22:22 29° N 04:25:33 10° NNE visible
19 Nov 4.1 06:04:11 10° NW 06:06:04 12° NNW 06:08:07 10° N visible
20 Nov 5.0 02:26:03 11° NE 02:26:03 11° NE 02:26:15 10° NE visible
20 Nov 3.7 04:07:52 24° N 04:07:52 24° N 04:10:23 10° NNE visible
20 Nov 4.0 05:49:41 12° NW 05:50:48 12° NNW 05:53:02 10° N visible
21 Nov 4.0 03:53:19 20° N 03:53:19 20° N 03:55:12 10° NNE visible
21 Nov 4.0 05:35:08 12° NNW 05:35:32 13° NNW 05:37:55 10° N visible
22 Nov 4.3 03:38:43 17° NNE 03:38:43 17° NNE 03:40:02 10° NNE visible
22 Nov 4.1 05:20:32 13° NNW 05:20:32 13° NNW 05:22:48 10° N visible
23 Nov 4.6 03:24:04 14° NNE 03:24:04 14° NNE 03:24:51 10° NNE visible
23 Nov 4.2 05:05:53 13° NNW 05:05:53 13° NNW 05:07:41 10° N visible
24 Nov 4.8 03:09:24 11° NNE 03:09:24 11° NNE 03:09:40 10° NNE visible
24 Nov 4.3 04:51:13 13° NNW 04:51:13 13° NNW 04:52:32 10° N visible
